Haines, AK

3:13 PM AKST on February 08, 2016 (GMT -0900)
Haines

Weather History for PAHN - March, 2013

Change the Weather History Date:

Monday, March 25, 2013

  Actual Average Record
Temperature  
Mean Temperature 36 °F -  
Max Temperature 42 °F 37 °F 51 °F (1981)
Min Temperature 32 °F 27 °F 18 °F (1983)
Degree Days  
Heating Degree Days 28    
Moisture  
Dew Point 34 °F    
Average Humidity 89    
Maximum Humidity 100    
Minimum Humidity 81    
Precipitation  
Precipitation 0.72 in - - ()
Sea Level Pressure  
Sea Level Pressure 29.72 in    
Wind  
Wind Speed 9 mph (ESE)    
Max Wind Speed 21 mph    
Max Gust Speed 37 mph    
Visibility 8 miles    
Events Rain , Snow    
Averages and records for this station are not official NWS values.
T = Trace of Precipitation, MM = Missing Value Source: NWS Daily Summary

Daily Weather History Graph

Daily Weather History Graph

Search for Another Location

Airport or City:

Trip Planner

Search our weather history database for the weather conditions in past years. The results will help you decide how hot, cold, wet, or windy it might be!

Date:

Astronomy

Mar. 25, 2013 Rise Set
Actual Time 6:47 AM AKDT 7:29 PM AKDT
Civil Twilight 6:06 AM AKDT 8:10 PM AKDT
Nautical Twilight 5:16 AM AKDT 9:00 PM AKDT
Astronomical Twilight 4:21 AM AKDT 9:56 PM AKDT
Moon 5:58 PM AKDT (3/25) 5:53 AM AKDT (3/25)
Length of Visible Light 14h 03m
Length of Day
12h 41m
Waxing Gibbous, 97% of the Moon is Illuminated
Mar 25
Waxing Gibbous
Mar 27
Full
Apr 2
Last Quarter
Apr 10
New
Apr 18
First Quarter

Hourly Weather History & Observations

Time (AKDT) Temp. Windchill Dew Point Humidity Pressure Visibility Wind Dir Wind Speed Gust Speed Precip Events Conditions
12:40 AM 32.0 °F - 32.0 °F 100% 29.83 in 5.0 mi Calm Calm - 0.01 in Snow Light Snow
12:54 AM 33.1 °F - 32.0 °F 96% 29.83 in 5.0 mi Calm Calm - 0.01 in Snow Light Snow
1:28 AM 33.8 °F 28.6 °F 32.0 °F 93% 29.81 in 6.0 mi ESE 5.8 mph - 0.03 in Rain Light Rain
1:38 AM 33.8 °F 27.0 °F 32.0 °F 93% 29.81 in 7.0 mi ESE 8.1 mph - 0.04 in Rain Light Rain
1:54 AM 33.1 °F 28.7 °F 33.1 °F 100% 29.81 in 6.0 mi East 4.6 mph - 0.05 in Rain Light Rain
2:54 AM 33.1 °F 27.7 °F 32.0 °F 96% 29.79 in 7.0 mi Variable 5.8 mph - 0.04 in Rain Light Rain
3:54 AM 33.1 °F 26.9 °F 32.0 °F 96% 29.77 in 3.0 mi East 6.9 mph - 0.04 in Snow Light Snow
4:43 AM 33.8 °F 27.0 °F 32.0 °F 93% 29.74 in 1.8 mi ESE 8.1 mph - 0.09 in Snow Light Snow
4:54 AM 32.0 °F 24.8 °F 32.0 °F 100% 29.75 in 3.0 mi ESE 8.1 mph - 0.12 in Snow Light Snow
5:13 AM 33.8 °F 24.8 °F 32.0 °F 93% 29.73 in 6.0 mi SE 12.7 mph - 0.03 in Rain Rain
5:54 AM 33.1 °F 23.9 °F 32.0 °F 96% 29.72 in 8.0 mi SE 12.7 mph - 0.06 in Rain Light Rain
6:54 AM 33.1 °F 23.0 °F 32.0 °F 96% 29.70 in 9.0 mi SE 15.0 mph - 0.05 in Rain Light Rain
7:54 AM 33.1 °F 24.9 °F 32.0 °F 96% 29.69 in 7.0 mi ESE 10.4 mph - 0.06 in Rain Light Rain
8:52 AM 37.4 °F 29.8 °F 33.8 °F 87% 29.66 in 4.0 mi ENE 11.5 mph 23.0 mph 0.11 in Rain Rain
8:54 AM 37.0 °F 29.3 °F 34.0 °F 89% 29.67 in 4.0 mi East 11.5 mph 24.2 mph 0.11 in Rain Rain
9:54 AM 37.0 °F 28.5 °F 34.0 °F 89% 29.67 in 7.0 mi ENE 13.8 mph 21.9 mph 0.09 in Rain Light Rain
10:54 AM 39.0 °F 30.6 °F 35.1 °F 86% 29.66 in 10.0 mi ENE 15.0 mph 24.2 mph 0.04 in Rain Light Rain
11:31 AM 39.2 °F 31.6 °F 35.6 °F 87% 29.65 in 10.0 mi East 12.7 mph 27.6 mph 0.00 in Rain Light Rain
11:41 AM 39.2 °F 31.2 °F 35.6 °F 87% 29.65 in 10.0 mi East 13.8 mph 25.3 mph 0.00 in Rain Light Rain
11:54 AM 39.9 °F 30.5 °F 36.0 °F 86% 29.65 in 10.0 mi ENE 19.6 mph 31.1 mph 0.00 in Rain Light Rain
12:07 PM 41.0 °F 33.5 °F 35.6 °F 81% 29.65 in 10.0 mi East 13.8 mph 31.1 mph 0.00 in Rain Light Rain
12:54 PM 41.0 °F 35.2 °F 36.0 °F 82% 29.68 in 10.0 mi East 9.2 mph 23.0 mph 0.00 in Rain Light Rain
1:54 PM 39.0 °F 31.0 °F 36.0 °F 89% 29.69 in 10.0 mi ENE 13.8 mph 23.0 mph 0.00 in Rain Light Rain
2:15 PM 41.0 °F 34.7 °F 35.6 °F 81% 29.68 in 10.0 mi ESE 10.4 mph 18.4 mph 0.00 in Rain Light Rain
2:54 PM 41.0 °F 35.8 °F 36.0 °F 82% 29.70 in 10.0 mi East 8.1 mph 18.4 mph 0.00 in   Overcast
3:54 PM 39.9 °F 32.9 °F 36.0 °F 86% 29.70 in 10.0 mi East 11.5 mph 25.3 mph N/A   Scattered Clouds
4:54 PM 39.9 °F 33.4 °F 35.1 °F 83% 29.70 in 10.0 mi East 10.4 mph 19.6 mph N/A   Partly Cloudy
5:54 PM 39.0 °F 34.0 °F 34.0 °F 82% 29.70 in 10.0 mi Variable 6.9 mph 16.1 mph 0.00 in Rain Light Rain
6:40 PM 37.4 °F 27.8 °F 33.8 °F 87% 29.72 in 10.0 mi ESE 17.3 mph 28.8 mph 0.01 in Rain Light Rain
6:54 PM 37.9 °F 29.6 °F 34.0 °F 86% 29.73 in 8.0 mi East 13.8 mph 21.9 mph 0.01 in Rain Light Rain
7:54 PM 37.0 °F 28.9 °F 33.1 °F 86% 29.74 in 10.0 mi ESE 12.7 mph 24.2 mph 0.00 in Rain Light Rain
8:07 PM 37.4 °F 30.3 °F 33.8 °F 87% 29.73 in 9.0 mi East 10.4 mph 24.2 mph 0.00 in Rain Light Rain
8:43 PM 37.4 °F 27.5 °F 33.8 °F 87% 29.73 in 10.0 mi ESE 18.4 mph 29.9 mph 0.01 in Rain Light Rain
8:54 PM 37.0 °F 28.1 °F 34.0 °F 89% 29.75 in 9.0 mi ESE 15.0 mph 26.5 mph 0.01 in Rain Light Rain
9:54 PM 37.0 °F 27.7 °F 34.0 °F 89% 29.74 in 9.0 mi ESE 16.1 mph 25.3 mph 0.01 in Rain Light Rain
10:44 PM 37.4 °F 29.3 °F 33.8 °F 87% 29.73 in 8.0 mi ESE 12.7 mph 34.5 mph 0.01 in Rain Light Rain
10:54 PM 37.0 °F 28.5 °F 34.0 °F 89% 29.74 in 9.0 mi ESE 13.8 mph 36.8 mph 0.01 in Rain Light Rain
11:50 PM 37.4 °F 26.9 °F 33.8 °F 87% 29.73 in 9.0 mi ESE 20.7 mph 34.5 mph 0.01 in Rain Light Rain
11:54 PM 37.0 °F 26.4 °F 34.0 °F 89% 29.74 in 9.0 mi ESE 20.7 mph 33.4 mph 0.01 in Rain Light Rain